STARLINK-36887

Last updated on Fri Mar 27 2026 00:02:06 GMT+0000 (Coordinated Universal Time)

1 67950U 26037U 26085.34543602 .00077718 00000+0 13157-2 0 9991 2 67950 43.0033 98.7955 0003125 264.2147 95.8357 15.50613649 5868
UTC large
Height (km)
Speed (km/s)
/
Latitude / Longitude
Inclination (degrees)
Orbital Period (minutes)
Azimuth
Elevation
Range (km)
Doppler Factor

Next 0 passes for location: London (51.5072 / 0.1276)

Sorry there are no passes over London.